CAPE
2 1 1 0 0 0 1 0 0 0 3 2 2 2 2 3 3 3 4 5 6 6 0 0 0 0 0 0 0 0 0 0 0 0 0 1 0 0 0 0 0 0 0 0 0 0 0 0 0 16 207 357 431 233
3 2 1 1 0 1 1 1 0 0 0 1 2 3 2 3 1 5 2 8 7 4 0 0 0 1 0 0 1 0 0 0 0 0 0 5 0 1 0 0 0 0 0 0 0 0 0 0 168 83 44 180 593 687
3 2 2 1 1 2 1 2 2 0 0 0 2 4 3 2 2 4 3 9 9 1 0 0 0 0 0 0 0 0 0 0 0 0 0 0 0 36 5 0 1 0 0 0 0 0 0 0 0 0 0 59 460 1107
3 2 2 1 1 1 2 1 2 1 1 1 1 1 3 1 1 4 3 6 6 3 0 0 0 0 0 0 0 0 0 0 0 0 0 0 0 31 122 46 23 25 3 2 0 12 0 0 0 2 11 291 902 1283
3 2 2 2 1 1 2 2 2 2 1 1 1 2 1 1 1 4 5 8 10 1 2 0 0 0 0 0 0 0 0 0 0 0 0 0 0 1 37 3 20 0 2 1 0 4 0 0 151 384 325 676 1275 1613
3 2 2 2 2 1 1 2 1 2 2 2 1 0 1 3 2 6 2 0 2 3 0 1 0 0 3 0 0 0 2 1 0 0 0 0 0 0 26 50 80 0 0 0 0 0 1 112 603 637 944 1511 1751 1635
2 2 2 1 1 2 2 2 2 1 1 2 2 4 3 4 7 4 0 2 2 3 1 2 2 8 0 0 3 4 4 0 0 0 0 0 0 0 0 15 52 2 0 0 0 1 356 689 650 1311 1687 1384 885 994
2 1 1 2 2 2 2 2 2 3 3 1 0 1 1 0 3 1 1 2 5 1 1 1 1 6 22 43 8 3 3 1 0 0 0 0 0 0 0 12 17 26 24 91 103 158 525 697 730 770 781 813 837 927
2 2 2 2 1 2 2 1 1 2 1 0 0 0 3 2 3 3 2 3 2 1 1 3 11 31 28 1 5 0 2 2 1 0 0 0 0 0 0 51 20 34 154 426 397 391 649 968 973 879 862 823 854 892
2 1 1 0 0 0 1 2 2 1 0 0 0 0 6 1 0 0 0 1 1 1 0 0 7 8 19 28 0 25 1 28 31 0 0 0 0 0 0 2 0 2 24 154 190 365 606 699 813 965 972 1000 1127 1062
2 2 1 0 0 0 2 2 2 1 0 0 3 2 0 0 0 13 11 1 1 1 1 3 5 5 4 15 14 0 14 11 27 42 0 0 0 0 0 0 0 0 0 72 91 22 61 199 409 419 554 1045 1345 1317
1 0 0 0 0 0 2 2 2 2 1 2 1 1 1 1 4 7 2 5 0 5 11 12 18 2 18 23 1 0 24 14 49 29 5 0 0 0 0 0 0 0 0 16 67 46 3 12 192 222 262 188 571 931
1 0 0 0 1 1 2 2 3 0 1 9 1 0 1 1 2 8 3 7 2 3 0 6 9 40 14 41 19 1 6 4 44 41 23 76 878 508 171 1 0 0 0 125 203 305 285 224 286 215 179 297 360 446
2 0 1 0 3 1 2 2 0 0 4 4 14 0 1 12 12 5 4 11 10 2 0 3 8 12 22 2 18 9 0 3 11 31 119 359 174 409 549 100 0 0 49 260 425 433 385 286 260 264 262 348 372 435
1 1 0 1 1 0 0 0 0 1 8 12 6 1 10 15 6 1 7 2 1 0 0 4 10 7 1 0 3 21 6 7 10 44 90 19 31 171 478 210 69 98 307 473 430 354 287 256 215 169 161 166 232 316
2 0 4 1 0 0 0 1 5 1 1 5 1 0 0 4 23 0 0 0 3 0 0 2 8 6 5 2 4 17 5 16 24 5 12 44 97 102 238 379 407 413 384 306 273 219 164 107 41 4 2 13 55 123
2 2 0 0 0 0 0 3 18 2 13 8 2 0 0 0 3 8 20 0 1 0 0 1 3 6 0 9 3 11 14 10 3 11 80 175 142 133 164 148 122 122 131 108 54 7 0 0 0 0 0 0 0 0
1 2 0 1 3 1 7 10 13 9 6 5 3 10 7 1 0 1 1 0 2 0 0 1 0 6 4 3 3 2 4 3 13 36 55 37 57 44 61 43 63 71 46 18 0 0 0 0 0 0 0 0 0 0
6 3 2 3 6 6 16 15 3 2 4 16 10 13 16 11 8 3 2 1 3 11 0 3 1 3 9 13 19 4 2 2 2 18 2 11 19 15 7 1 0 7 39 39 11 0 0 0 0 0 0 0 0 0
0 0 0 0 1 9 15 18 28 21 13 11 2 7 0 1 9 6 3 1 4 13 6 8 12 23 47 10 10 3 0 2 18 47 13 5 5 0 0 0 2 3 14 5 0 0 0 0 0 0 0 0 0 0
0 0 0 6 5 3 4 15 19 18 8 6 0 0 0 1 20 15 10 2 8 9 7 10 11 12 11 1 8 0 0 0 2 2 13 28 4 4 26 31 14 8 7 5 0 0 1 2 1 0 0 0 0 0
1 0 21 7 14 18 5 2 17 9 5 1 0 1 2 1 2 14 0 12 8 2 15 18 13 0 0 0 1 20 0 0 0 0 0 6 20 22 33 14 5 7 6 3 2 0 2 1 4 3 1 0 0 0
0 0 2 11 15 4 2 1 8 7 1 6 5 4 0 10 20 1 6 9 11 30 60 40 15 6 4 14 3 0 14 1 0 0 0 9 10 65 95 79 47 27 14 4 11 21 24 9 0 0 1 0 0 0
0 8 18 19 8 1 5 8 2 1 2 2 1 4 3 32 16 1 21 1 2 12 2 1 1 1 10 28 34 26 19 14 0 0 0 0 30 14 22 61 75 54 40 46 43 45 48 36 25 10 11 8 4 7
2 0 1 0 1 7 3 2 2 4 13 5 3 13 9 15 9 3 0 0 0 0 0 1 2 7 5 10 28 19 13 26 35 17 2 0 13 6 11 0 0 4 11 22 30 42 79 35 22 16 9 10 13 6
0 3 1 13 2 0 1 8 8 3 3 7 7 1 0 7 23 15 13 20 15 1 0 0 0 4 0 21 24 25 12 18 2 18 42 33 19 8 2 2 2 2 1 3 34 49 94 73 38 35 11 0 0 14
3 7 8 0 2 4 8 9 2 2 6 3 1 0 0 4 15 15 0 0 0 0 1 1 1 2 16 32 44 46 6 2 3 9 18 10 2 2 2 6 8 4 6 1 20 71 98 100 82 85 54 39 23 9
13 10 10 12 12 12 6 4 2 6 5 4 2 7 4 6 1 0 0 0 0 1 3 2 5 23 50 54 37 26 26 16 5 4 7 4 0 0 0 0 0 0 0 0 0 37 96 74 98 108 126 132 108 129
4 8 9 11 8 5 3 1 3 3 0 0 4 3 0 0 0 0 0 0 3 2 0 7 58 77 14 8 6 11 1 1 4 5 26 13 8 1 0 0 1 7 11 9 0 2 106 73 79 140 147 150 158 173
3 0 1 2 2 9 4 0 1 0 0 0 0 0 0 0 0 0 0 1 0 4 34 31 12 54 26 25 43 11 35 17 8 20 26 16 9 26 83 89 125 142 111 61 41 49 7 58 75 28 30 56 103 143
0 1 2 2 2 0 0 0 0 0 0 0 0 0 0 0 0 0 0 0 0 0 18 42 51 26 0 1 15 33 85 25 18 31 40 37 35 159 221 158 158 223 263 153 145 155 162 98 129 166 100 59 39 15
0 0 1 3 3 0 0 0 0 1 20 24 13 10 4 0 9 9 22 21 11 17 10 16 49 50 50 9 6 12 6 43 67 179 339 3 6 178 346 339 268 291 303 241 91 65 118 104 15 69 109 112 84 51
0 2 1 0 0 5 0 2 20 37 27 24 40 32 18 11 0 0 0 1 1 11 30 73 114 167 154 94 122 247 117 196 33 0 0 0 0 1 84 332 279 237 220 237 211 191 207 217 201 290 322 352 392 413
CIN
0 0 0 0 0 0 0 0 0 0 0 0 0 0 0 0 -3 -1 -1 -3 0 0 0 0 0 -1 0 0 0 0 0 0 0 0 0 -2 0 0 0 0 0 0 0 0 0 0 0 0 0 -55 -34 -39 -41 -38
0 0 0 0 0 0 0 0 0 0 0 0 0 0 0 0 -2 -1 0 -1 -1 0 0 0 0 -2 -2 -1 -3 0 0 0 0 0 0 -33 0 -62 0 0 0 0 0 0 0 0 0 0 -65 -124 -133 -137 -81 -68
0 0 0 0 0 0 0 0 0 0 0 0 0 0 0 0 0 0 0 0 0 0 0 0 0 0 0 0 0 0 0 0 0 0 0 0 0 -61 -39 0 -1 0 0 0 0 0 0 0 0 0 0 -128 -130 -130
0 0 0 0 0 0 0 0 0 0 0 0 0 0 0 0 0 0 0 0 0 0 0 0 0 -1 0 0 0 0 0 0 0 0 0 0 0 -136 -28 -89 -21 -34 -31 -24 0 -38 0 0 0 -46 -55 -160 -165 -176
0 0 0 0 0 0 0 0 0 0 0 0 0 0 0 0 0 0 0 0 0 0 0 0 0 0 0 0 0 0 0 0 0 0 0 0 0 -17 -88 -123 -26 0 -9 -4 0 -7 0 0 -56 -93 -106 -126 -144 -175
0 0 0 0 0 0 0 0 0 0 0 0 0 0 0 0 0 0 0 0 0 0 0 0 0 0 0 0 0 0 -1 -2 0 0 0 0 0 0 -73 -11 -6 0 0 0 0 0 -2 -71 -86 -110 -98 -120 -152 -171
0 0 0 0 0 0 0 0 0 0 0 0 0 0 0 0 0 0 -2 0 0 0 0 0 0 -1 0 0 0 -1 -1 0 0 0 0 0 0 0 0 -35 -12 -10 0 0 0 -8 -71 -66 -66 -94 -78 -124 -197 -220
0 0 0 0 0 0 0 0 0 0 0 0 0 0 0 0 0 0 0 0 0 0 0 0 0 -1 -18 -2 -7 -1 -1 -1 -1 0 0 0 0 0 0 -39 -49 -65 -91 -101 -91 -89 -24 -47 -60 -102 -107 -133 -147 -159
0 0 0 0 0 0 0 0 0 0 0 0 0 0 0 0 0 0 0 0 0 0 0 0 0 0 -2 -8 -5 0 -1 -8 -3 0 0 0 0 0 0 -37 -65 -76 -63 -59 -66 -55 -55 -39 -47 -66 -57 -58 -67 -106
0 0 0 0 0 0 0 0 0 0 0 0 0 0 0 0 0 0 0 0 0 0 0 0 0 -1 -1 0 0 0 -11 -3 -1 0 0 0 0 0 0 -53 0 -29 -103 -90 -31 -36 -23 -39 -46 -35 -33 -26 -41 -73
0 0 0 0 0 0 0 0 0 0 0 0 0 -1 0 0 -4 -13 -4 0 0 0 0 0 0 -1 -1 0 0 0 -2 -8 -1 -4 0 0 0 0 0 0 0 0 0 -75 -74 -63 -42 -16 -46 -67 -84 -99 -73 -89
0 0 0 0 0 0 0 0 0 0 0 0 0 0 0 0 -4 -1 0 0 0 0 0 0 0 -4 -1 -1 -1 0 0 -6 -1 -8 -3 0 0 0 0 0 0 0 0 -132 -63 -38 -19 -86 -49 -56 -167 -178 -162 -166
0 0 0 -1 -6 -4 0 0 0 0 -2 0 0 0 0 0 0 -1 0 0 0 -1 -1 -2 0 0 -9 0 0 -4 0 0 -7 -5 -37 -11 -15 -37 -102 -34 0 0 0 -88 -63 -78 -102 -108 -136 -159 -200 -200 -204 -173
-1 0 -10 -3 -2 0 0 0 0 0 0 0 0 0 -1 0 0 0 0 0 -1 -1 0 0 0 0 -1 -1 -2 0 0 0 0 -38 -3 -57 -114 -60 -56 -146 0 0 -118 -75 -76 -101 -125 -134 -150 -163 -171 -151 -148 -151
-8 -11 -1 0 0 0 0 0 0 0 -1 0 0 0 0 -1 -3 -4 -1 -2 -1 0 0 -11 0 -1 -2 0 -2 -1 0 0 0 -6 -35 -111 -121 -82 -47 -123 -177 -132 -90 -89 -114 -148 -172 -174 -177 -190 -181 -174 -151 -131
-8 -6 -1 0 0 0 0 0 0 -1 0 0 0 0 0 0 0 0 -2 -5 -4 0 0 0 0 0 0 -1 0 0 0 -1 -3 -43 -100 -90 -70 -85 -59 -40 -41 -76 -117 -157 -169 -179 -200 -205 -224 -81 -82 -212 -172 -130
0 0 0 0 0 0 0 -2 0 0 0 0 0 0 0 0 -1 -1 0 0 -9 0 0 0 0 0 0 0 0 -1 0 -3 -4 -24 -32 -21 -45 -63 -46 -49 -79 -123 -164 -195 -235 -177 0 0 0 0 0 0 0 0
-1 -1 0 -1 -31 -11 -7 -3 0 -2 0 0 0 0 -1 -8 -4 -4 -5 0 -1 0 0 0 0 0 0 0 0 0 -2 -4 -22 -18 -19 -58 -57 -57 -74 -118 -118 -111 -153 -201 -39 0 0 0 0 0 0 0 0 0
0 0 0 -47 -26 -12 0 0 -3 -2 -2 -2 -7 -7 -2 -1 -2 -2 -1 -1 -1 -1 0 0 0 0 0 0 0 -2 0 0 0 -3 -4 -26 -23 -42 -76 -27 0 -76 -100 -118 -137 0 0 0 0 0 0 0 0 0
0 0 0 0 0 -12 -2 0 -1 0 -1 -1 -1 -1 -1 0 -2 -2 -2 -1 -1 0 -1 -1 -1 -1 -1 -1 0 -1 0 0 -4 0 0 -6 -40 0 -5 0 -73 -77 -61 -39 0 0 0 0 0 0 0 0 0 0
0 0 0 -2 -26 0 -15 -1 0 -1 -1 -1 0 0 0 -3 -1 0 0 -2 0 0 -1 -1 -1 -8 -5 -20 -27 0 0 0 0 -29 -11 -2 -16 -45 -15 -1 -13 -31 -38 -46 0 0 -1 -1 0 0 0 0 0 0
-1 0 -1 -6 -3 0 -4 0 0 -1 0 0 0 0 0 0 -4 0 0 -1 -1 -3 -1 -2 -1 0 0 0 -5 -17 -10 -16 0 0 0 -21 -5 -9 -10 -2 0 -1 -1 -1 0 0 -1 -2 -1 -2 -1 0 0 0
0 0 -4 -10 0 -4 -1 0 0 0 0 0 0 0 0 0 -4 -1 -1 -4 -7 -5 -1 0 -2 -5 -5 -6 -28 -1 -20 -18 0 0 0 -2 -17 -4 -6 -10 -5 -1 -1 -1 -1 -2 -1 -9 0 -1 -1 0 0 0
0 0 0 0 0 -1 -1 0 0 0 0 0 0 0 -4 0 -3 -3 0 -1 -1 -13 -2 -6 -48 -2 -8 -1 -2 0 -1 -19 0 0 0 0 -1 -8 -11 -1 0 -1 -1 -2 -1 -2 0 -1 -6 -7 -2 -1 -1 -1
-2 0 0 0 -1 0 -1 0 0 0 0 0 0 -1 -2 0 -2 0 0 -2 -2 0 0 -14 -40 -43 -42 -24 -3 -4 -14 -3 -2 -1 -20 -3 -1 -1 -1 0 0 -1 -2 -1 -1 -1 -1 0 -3 -1 -1 0 -2 -1
-4 -1 -1 0 0 0 -1 -1 0 0 0 0 -1 -6 -12 -1 0 0 -1 0 0 0 0 0 0 -1 0 -5 -1 -1 -11 -14 -4 -1 -2 -2 -1 -1 -2 -1 -1 -1 -1 -2 -1 -2 -1 -1 -1 -6 -4 0 0 -3
-2 -1 0 0 -1 -2 0 0 0 0 0 -1 -1 -1 0 0 0 -1 0 0 0 0 0 0 0 0 -12 -1 0 -4 -59 -58 -62 -10 -2 -2 -1 -2 -2 -1 -1 -1 -2 -1 -1 -2 -1 -2 -2 -2 -6 -39 -32 -36
0 0 -1 0 0 0 0 -1 -1 -1 -1 0 -1 0 0 0 0 0 0 0 0 0 0 0 -27 -13 -1 -1 -5 -28 -31 -51 -65 -78 -45 -23 0 0 0 0 0 0 0 0 0 -2 -10 -12 -5 -11 -11 -16 -21 -4
0 -1 0 0 0 0 0 0 -1 0 -2 -1 0 0 0 0 0 0 0 0 0 0 -2 -40 -1 -2 -42 -47 -54 -29 -60 -90 -44 -30 0 -1 -1 0 0 0 -6 -48 -42 -39 0 -20 -13 -31 -25 -6 -24 -21 -16 -17
0 -1 0 0 -1 0 0 0 0 0 0 0 0 0 0 0 0 0 0 0 0 -25 -5 -9 -48 -1 -6 -4 -1 -12 -6 -22 -58 -3 -1 -1 -3 -2 -1 -2 -2 -1 -3 -2 -2 -14 -102 -69 -49 -80 -69 -35 -14 -9
0 0 0 0 0 0 0 -1 0 0 0 0 0 0 0 0 0 0 0 0 0 0 -43 -10 -1 -8 -9 -7 -2 0 0 -19 -38 -21 -19 -20 -14 -1 -3 -9 -11 -9 -5 -6 -3 -2 -4 -25 -2 -2 -1 -6 -5 -8
0 0 0 0 0 0 0 0 0 -29 -19 -8 -8 -6 -9 0 -3 -21 -57 -75 -61 -71 -55 -45 -13 -13 -18 -30 -49 -31 -35 -4 -2 -6 -1 -13 -33 -1 -2 -1 -4 -2 -2 -5 -27 -19 -20 -21 -29 -25 -6 -10 -19 -10
0 0 0 0 0 -5 0 -4 -5 0 -1 -1 -1 -1 -1 -1 0 0 0 -13 -1 -18 -14 -15 -23 -22 -32 -49 -31 -5 -16 -1 -38 0 0 0 0 -12 -30 -2 -4 -4 -6 -5 -2 -1 -2 -3 -13 -1 -1 -1 -1 -15
Wind_Speed
17 16 18 19 21 23 24 25 26 27 27 26 28 29 29 29 28 26 25 17 20 24 36 30 27 32 33 30 29 25 25 21 24 28 30 31 34 33 39 35 33 34 33 34 36 34 32 14 13 22 22 19 20 21
20 18 18 18 20 21 22 23 25 27 26 25 25 24 25 25 27 25 27 23 17 22 33 42 40 41 39 38 30 24 27 23 23 26 24 25 29 30 34 37 28 37 32 36 32 34 21 20 21 20 22 23 22 20
22 19 18 19 19 20 21 23 24 25 26 26 26 23 25 24 23 23 27 27 24 31 39 25 26 18 10 24 35 30 25 22 22 22 25 26 28 26 34 41 27 31 27 31 26 25 24 24 25 26 26 25 25 22
24 21 20 19 19 20 20 22 22 23 24 24 25 22 23 26 26 22 24 22 20 26 30 21 20 18 19 21 16 17 29 18 21 26 29 29 28 23 27 28 36 26 26 29 30 29 29 31 31 30 29 27 23 17
24 23 21 20 20 20 20 22 22 23 23 24 23 25 23 25 25 26 20 15 8 15 26 34 36 18 20 16 19 11 19 33 29 27 28 31 29 27 26 28 32 27 27 31 33 27 30 32 30 28 27 22 17 12
24 24 23 22 20 19 20 20 20 21 25 30 27 27 27 22 24 25 27 16 8 7 21 24 23 23 19 18 13 13 19 25 25 23 27 30 31 26 28 33 27 27 26 27 29 27 29 30 28 26 21 15 10 7
25 24 23 22 21 20 20 21 21 22 23 25 28 23 26 22 17 17 21 20 12 11 19 23 21 14 15 13 11 12 12 18 23 26 29 31 26 26 34 35 27 28 28 28 28 26 26 20 20 13 7 5 3 2
24 23 24 23 22 22 22 22 23 23 24 26 26 29 25 17 14 17 4 10 8 14 16 19 20 19 14 15 14 12 12 16 21 29 28 30 30 29 32 31 27 25 24 24 22 18 17 11 5 2 2 4 4 4
24 24 24 23 22 24 24 24 23 22 23 26 36 30 18 15 15 18 17 8 6 12 18 17 19 19 15 16 15 14 15 19 21 28 32 26 34 36 32 28 24 21 17 16 13 8 5 4 3 1 1 1 1 1
24 24 24 24 25 25 25 23 22 22 22 11 17 15 16 15 17 14 14 11 7 7 10 21 23 27 23 20 18 19 19 23 24 29 25 33 40 38 34 27 22 21 22 16 6 4 4 2 1 1 1 3 2 2
23 24 24 23 25 24 22 21 20 24 15 14 14 13 22 19 12 11 9 9 9 7 15 18 18 24 21 27 25 22 25 26 23 18 24 31 39 41 37 37 30 23 23 24 21 12 9 8 3 3 5 8 6 5
24 23 22 24 24 20 19 19 18 17 15 18 10 21 15 14 11 9 12 11 17 18 15 16 19 22 20 17 19 20 21 22 23 13 23 32 30 36 38 44 36 27 23 20 19 19 14 12 11 12 6 9 11 9
22 22 21 22 19 15 13 16 15 11 11 15 15 16 16 14 19 19 16 17 18 16 16 14 15 18 8 18 21 19 21 27 22 21 24 22 17 24 33 37 36 25 22 17 13 10 9 9 11 13 11 12 11 11
20 19 20 19 15 9 8 10 12 15 14 13 13 13 15 14 17 17 21 21 21 20 20 18 16 18 16 17 19 22 24 22 26 14 25 21 23 24 27 29 28 25 20 14 14 9 7 6 7 9 10 11 10 9
18 18 18 16 17 16 15 13 14 16 15 14 14 13 15 18 16 19 20 21 21 20 20 20 19 19 18 19 19 20 20 21 23 21 19 21 22 21 19 20 20 20 17 13 10 8 6 5 6 8 9 10 9 8
17 18 15 14 15 15 15 16 15 15 15 15 12 14 5 22 21 21 21 21 20 21 19 18 17 18 18 18 19 21 19 17 17 20 19 18 13 11 9 8 10 13 13 10 8 5 5 6 7 8 10 11 11 10
16 13 15 15 15 15 14 15 14 14 14 14 13 11 23 24 24 22 22 21 20 19 17 17 16 17 18 18 19 18 15 15 16 14 10 7 2 2 4 5 6 7 7 7 7 5 5 7 8 10 11 12 11 11
12 14 15 15 17 15 14 14 14 14 14 12 16 18 17 24 24 24 23 21 20 19 17 16 16 15 15 15 15 16 16 14 13 13 12 12 8 7 6 5 5 4 3 4 5 6 7 8 10 11 10 10 10 11
14 15 14 15 16 16 15 14 14 15 14 15 9 7 23 24 24 25 24 23 21 19 18 17 16 16 16 14 13 12 13 15 17 17 13 14 14 14 11 11 11 9 9 8 9 9 10 11 10 9 9 10 11 13
13 14 15 12 13 14 14 13 12 14 15 17 20 20 22 23 22 21 22 22 21 19 18 18 16 16 15 13 13 13 13 13 12 10 12 7 10 12 11 11 9 11 14 8 7 9 8 8 8 7 8 9 10 11
14 14 15 13 14 14 14 16 12 12 15 16 17 17 17 18 19 18 17 18 20 20 19 18 17 15 14 14 14 14 14 12 10 11 13 11 14 12 14 13 9 6 9 8 6 7 8 7 6 7 6 8 10 11
14 14 14 14 14 13 13 12 13 16 16 15 15 15 14 13 15 15 15 18 17 17 18 19 20 20 20 19 18 16 15 15 14 12 9 12 13 13 12 6 4 4 4 4 5 6 8 7 7 7 7 7 9 10
15 14 14 14 10 15 16 11 15 15 16 15 15 15 16 14 14 13 14 13 15 17 17 15 16 17 20 20 21 19 16 15 14 12 12 10 9 9 9 10 13 10 8 8 9 9 9 9 8 8 7 7 9 10
16 15 15 16 16 16 15 16 16 16 16 15 15 15 15 14 13 14 13 12 10 12 12 14 15 16 17 18 17 17 16 15 20 19 14 14 12 10 11 11 13 14 14 11 10 10 12 11 7 8 7 7 9 10
16 15 16 16 17 16 16 15 15 15 15 14 15 15 13 14 13 13 13 14 13 13 15 17 20 21 21 21 20 19 17 17 20 23 20 19 19 16 15 15 15 16 16 15 14 12 11 9 8 7 6 6 7 7
16 16 17 15 15 17 16 15 14 14 15 14 14 14 14 14 14 14 14 16 16 17 19 22 24 23 23 24 24 21 19 20 20 21 17 16 23 21 20 20 19 19 18 20 20 14 10 9 7 7 6 6 9 10
16 17 17 17 16 16 16 16 15 16 16 15 14 14 14 15 15 15 15 15 16 18 18 18 17 19 21 22 22 21 21 20 17 19 21 22 22 21 23 23 22 21 19 19 17 17 16 11 7 4 3 5 7 8
16 17 18 18 18 18 17 17 17 16 15 13 12 12 12 13 14 13 13 15 16 15 14 14 13 13 13 17 19 19 19 17 18 21 23 22 22 23 24 23 22 20 20 20 18 16 13 11 8 6 6 10 15 16
17 18 18 18 19 19 17 17 16 16 15 12 10 12 14 13 11 9 11 12 11 11 12 12 12 13 11 12 13 12 12 13 15 17 18 18 15 15 16 18 19 18 17 16 14 15 12 8 9 9 10 13 16 17
17 17 18 19 19 18 16 17 16 14 13 12 13 13 12 11 8 8 7 8 10 10 10 11 10 9 10 11 12 14 15 13 11 5 15 12 13 14 13 13 12 12 12 12 11 12 13 14 14 23 25 25 21 17
18 17 18 19 19 19 17 15 12 13 12 14 19 18 16 16 13 14 9 5 5 7 7 6 7 15 14 14 16 15 17 16 15 19 20 18 16 14 14 14 13 14 13 12 12 16 15 16 23 24 23 26 23 23
19 17 18 18 14 15 18 18 22 20 19 15 15 15 13 15 9 4 4 2 2 6 5 6 3 4 16 14 14 13 13 13 14 18 20 20 18 15 15 14 15 14 12 11 11 15 16 16 18 20 23 21 18 16
17 17 17 15 14 14 17 18 19 21 25 14 10 9 11 11 13 6 7 13 17 18 14 11 1 4 9 12 15 14 15 18 19 16 15 14 13 14 15 15 15 16 17 18 18 17 17 17 18 17 15 17 16 12
Wind_Direction
344 342 342 345 347 347 348 347 348 348 347 348 345 342 342 339 340 344 340 345 342 328 311 295 289 271 269 273 272 280 275 268 259 253 251 247 247 247 243 243 239 240 243 249 251 255 257 281 288 264 273 288 281 283
346 341 341 340 343 345 346 345 345 345 347 348 345 346 346 344 336 342 334 337 337 323 305 278 259 249 239 240 269 274 267 274 264 256 258 259 251 250 243 241 249 242 246 250 252 253 273 273 276 279 279 278 279 284
348 346 342 342 342 343 344 343 344 344 346 346 346 347 344 345 340 337 330 329 328 316 302 316 302 309 294 202 212 264 273 271 267 267 264 259 255 259 246 241 251 248 257 252 257 262 270 274 273 273 277 279 282 283
351 349 347 345 344 345 344 343 344 344 344 345 345 346 346 342 337 337 330 333 333 321 310 321 322 307 293 285 274 191 247 282 274 265 259 256 255 263 256 255 247 260 248 253 258 269 275 275 276 278 276 277 282 286
352 351 350 348 346 345 346 345 344 342 341 341 344 342 343 339 339 331 333 330 329 330 311 294 280 285 296 289 274 261 258 258 264 263 255 253 260 261 260 259 251 254 255 253 260 276 272 273 282 284 278 278 282 277
351 351 350 352 351 349 346 345 344 343 338 334 336 336 337 343 340 338 330 354 10 360 324 310 302 293 295 295 286 274 266 262 261 265 260 257 258 261 256 251 257 256 262 269 270 281 283 283 284 283 278 269 270 263
351 351 351 351 350 349 347 347 348 346 344 341 339 341 336 338 341 338 330 342 14 7 330 311 298 309 317 306 303 290 274 267 263 259 257 254 257 258 252 250 262 262 268 271 274 279 280 284 284 286 272 260 229 205
348 350 349 349 348 348 347 345 345 345 345 343 343 336 339 349 347 329 350 356 42 349 333 312 297 294 317 296 298 296 284 271 267 257 258 252 254 253 251 250 261 266 268 271 273 271 280 281 290 321 95 116 126 135
345 346 346 349 351 348 347 346 346 347 346 343 327 333 357 5 353 334 357 61 56 358 323 311 298 292 311 303 301 292 282 276 270 255 248 253 244 244 247 251 258 259 268 272 267 261 258 253 244 200 103 94 115 143
342 344 345 346 347 346 347 349 351 353 351 355 10 13 8 4 352 8 357 11 45 32 349 304 289 269 286 286 285 278 276 266 265 256 254 246 243 244 244 249 254 252 247 248 251 219 225 210 130 164 305 321 321 304
339 340 342 344 344 347 350 353 357 353 18 34 26 29 322 348 11 23 63 92 65 130 171 206 191 225 281 253 246 257 229 246 266 264 248 247 242 238 238 237 242 248 245 241 248 250 265 258 262 318 295 287 314 315
336 338 341 342 343 348 352 357 3 8 21 12 18 326 17 29 44 126 131 104 179 221 203 222 241 255 253 260 259 269 249 248 250 277 256 248 253 238 233 225 234 245 246 247 253 248 252 268 261 265 300 293 295 293
338 340 342 344 349 356 4 2 8 24 28 23 20 9 358 336 271 257 258 260 241 226 230 233 246 235 308 262 249 254 255 238 269 193 252 256 258 245 233 230 232 241 241 247 250 257 252 251 272 280 294 305 309 303
342 346 347 350 359 10 25 32 34 25 33 36 31 19 346 331 282 287 270 261 263 253 269 257 239 266 271 267 264 253 227 228 214 152 226 242 244 245 236 232 229 232 233 246 238 242 252 279 302 303 305 308 318 321
348 351 353 1 10 20 27 31 26 18 19 21 11 14 321 294 314 290 266 272 274 261 266 259 248 259 265 263 267 259 248 235 212 232 246 254 244 240 238 230 225 219 219 223 228 245 261 295 311 319 323 321 326 330
356 357 13 20 17 16 12 8 10 10 6 359 5 348 346 244 273 278 268 272 284 276 259 231 253 244 259 257 237 201 226 239 250 246 253 245 250 246 228 213 209 205 207 212 223 244 269 291 308 318 319 318 317 318
2 13 12 13 13 12 14 10 9 6 3 1 359 10 249 257 261 263 269 270 276 283 255 245 249 254 240 228 221 221 232 260 248 242 242 238 235 171 152 141 155 165 183 205 224 260 291 306 309 313 312 312 316 315
14 10 7 13 7 14 20 17 9 2 352 354 336 321 318 270 260 255 258 264 263 271 262 257 248 236 239 256 259 251 250 250 232 230 217 207 200 194 185 173 178 177 183 219 249 271 293 302 309 314 321 320 321 319
10 5 9 7 12 14 18 20 17 2 359 350 27 31 277 265 260 254 248 252 251 257 255 253 249 237 250 263 290 295 285 250 226 226 252 241 228 218 222 222 224 227 229 240 255 274 290 298 310 317 321 322 320 318
17 10 7 33 37 24 19 27 37 18 7 338 308 297 274 257 257 255 249 244 241 246 240 240 256 263 264 273 280 286 282 265 259 264 247 261 241 234 251 262 274 254 236 255 293 289 312 329 335 344 340 330 332 333
21 17 19 36 30 26 19 350 55 69 217 212 266 257 248 247 242 251 253 245 236 241 246 253 257 269 276 285 295 305 290 296 270 235 232 230 213 223 219 225 242 266 237 245 279 308 320 344 354 1 6 345 339 341
20 30 33 30 30 39 25 81 150 233 188 212 236 222 226 252 241 246 246 233 242 255 263 267 264 262 255 258 270 283 306 279 260 261 264 233 235 233 235 271 279 282 290 307 322 330 345 352 340 327 327 334 328 338
21 36 38 38 308 266 218 127 189 189 197 212 214 219 214 212 219 229 225 248 258 265 273 279 277 271 266 270 271 274 290 254 261 271 269 269 265 263 261 254 241 254 271 283 289 305 323 326 334 337 343 339 334 336
356 8 305 238 230 229 230 207 200 201 203 205 208 209 215 227 231 224 239 255 270 280 292 296 295 291 288 284 284 284 284 280 250 252 280 281 276 283 278 267 259 258 265 290 304 314 313 322 341 335 340 335 326 327
246 245 225 215 204 200 196 200 198 196 202 206 203 206 222 219 223 230 233 239 256 272 291 297 297 292 285 280 283 288 295 287 269 266 272 273 271 272 274 274 274 274 277 284 293 298 320 343 23 26 6 350 344 343
214 210 202 210 199 192 196 196 199 201 197 197 199 204 207 218 219 230 230 208 232 254 271 281 282 280 284 279 280 282 290 291 281 274 284 279 263 270 273 274 277 280 280 272 273 291 310 328 357 37 46 2 325 314
202 196 192 192 194 191 187 185 185 179 176 179 183 187 187 183 189 191 217 248 253 261 255 254 247 242 250 262 269 286 291 294 290 284 285 279 276 277 273 273 278 281 286 283 291 292 291 310 328 355 31 343 329 324
198 196 188 186 185 182 178 175 169 168 171 177 189 185 192 194 187 209 220 240 252 242 232 235 216 179 190 281 296 302 302 303 296 286 282 282 278 274 274 277 282 287 284 283 288 297 302 312 322 331 323 301 294 298
185 185 183 180 177 174 176 174 171 165 167 175 177 159 148 154 173 214 228 225 231 216 212 209 190 142 172 189 156 101 40 352 311 298 290 286 290 292 286 282 282 285 285 284 286 293 307 303 303 313 315 307 302 296
176 176 171 171 169 168 171 166 163 166 178 184 153 143 143 135 157 144 166 206 220 230 225 191 178 190 203 180 109 72 50 62 98 299 292 299 297 299 299 295 298 299 299 291 289 295 290 284 285 272 268 269 280 291
174 174 171 167 161 162 167 176 177 167 177 162 140 134 126 119 125 116 118 138 173 176 189 225 260 83 99 109 93 108 65 42 346 206 229 248 268 285 289 287 290 291 297 293 290 282 288 285 268 268 276 267 277 278
172 176 173 168 168 159 152 146 137 129 129 148 157 148 138 134 135 134 112 84 4 332 318 133 161 138 105 140 144 135 148 163 156 172 170 180 231 260 269 286 286 289 300 305 303 292 293 299 291 274 273 279 290 291
173 180 185 186 183 175 155 142 126 116 86 3 344 329 334 334 338 297 309 327 339 340 330 328 245 145 135 134 127 135 135 126 133 168 203 230 251 255 246 261 275 262 258 258 267 280 289 290 288 297 311 304 310 330